Year,Month,Day,Hour,Minute,Value (Times are PST for temperature in C)
2021,01,29,00,00,-29.30
2021,01,29,00,01,-29.20
2021,01,29,00,02,-29.20
2021,01,29,00,03,-29.20
2021,01,29,00,04,-29.20
2021,01,29,00,05,-29.20
2021,01,29,00,06,-29.20
2021,01,29,00,07,-29.20
2021,01,29,00,08,-29.10
2021,01,29,00,09,-29.10
2021,01,29,00,10,-29.10
2021,01,29,00,11,-29.10
2021,01,29,00,12,-29.10
2021,01,29,00,13,-29.10
2021,01,29,00,14,-29.10
2021,01,29,00,15,-29.00
2021,01,29,00,16,-29.00
2021,01,29,00,17,-29.00
2021,01,29,00,18,-29.00
2021,01,29,00,19,-29.00
2021,01,29,00,20,-28.90
2021,01,29,00,21,-28.90
2021,01,29,00,22,-28.90
2021,01,29,00,23,-28.90
2021,01,29,00,24,-28.80
2021,01,29,00,25,-28.80
2021,01,29,00,26,-28.80
2021,01,29,00,27,-28.80
2021,01,29,00,28,-28.80
2021,01,29,00,29,-28.80
2021,01,29,00,30,-28.70
2021,01,29,00,31,-28.70
2021,01,29,00,32,-28.70
2021,01,29,00,33,-28.70
2021,01,29,00,34,-28.70
2021,01,29,00,35,-28.70
2021,01,29,00,36,-28.60
2021,01,29,00,37,-28.60
2021,01,29,00,38,-28.60
2021,01,29,00,39,-28.60
2021,01,29,00,40,-28.60
2021,01,29,00,41,-28.50
2021,01,29,00,42,-28.50
2021,01,29,00,43,-28.50
2021,01,29,00,44,-28.50
2021,01,29,00,45,-28.50
2021,01,29,00,46,-28.40
2021,01,29,00,47,-28.40
2021,01,29,00,48,-28.40
2021,01,29,00,49,-28.40
2021,01,29,00,50,-28.40
2021,01,29,00,51,-28.30
2021,01,29,00,52,-28.30
2021,01,29,00,53,-28.30
2021,01,29,00,54,-28.30
2021,01,29,00,55,-28.30
2021,01,29,00,56,-28.30
2021,01,29,00,57,-28.30
2021,01,29,00,58,-28.30
2021,01,29,00,59,-28.30
2021,01,29,01,00,-28.20
2021,01,29,01,01,-28.20
2021,01,29,01,02,-28.20
2021,01,29,01,03,-28.20
2021,01,29,01,04,-28.20
2021,01,29,01,05,-28.20
2021,01,29,01,06,-28.20
2021,01,29,01,07,-28.20
2021,01,29,01,08,-28.20
2021,01,29,01,09,-28.20
2021,01,29,01,10,-28.10
2021,01,29,01,11,-28.10
2021,01,29,01,12,-28.10
2021,01,29,01,13,-28.10
2021,01,29,01,14,-28.10
2021,01,29,01,15,-28.10
2021,01,29,01,16,-28.10
2021,01,29,01,17,-28.10
2021,01,29,01,18,-28.00
2021,01,29,01,19,-28.00
2021,01,29,01,20,-28.00
2021,01,29,01,21,-28.00
2021,01,29,01,22,-28.00
2021,01,29,01,23,-28.00
2021,01,29,01,24,-27.90
2021,01,29,01,25,-27.90
2021,01,29,01,26,-27.90
2021,01,29,01,27,-27.90
2021,01,29,01,28,-27.90
2021,01,29,01,29,-27.90
2021,01,29,01,30,-27.90
2021,01,29,01,31,-27.90
2021,01,29,01,32,-27.80
2021,01,29,01,33,-27.80
2021,01,29,01,34,-27.80
2021,01,29,01,35,-27.80
2021,01,29,01,36,-27.80
2021,01,29,01,37,-27.80
2021,01,29,01,38,-27.80
2021,01,29,01,39,-27.80
2021,01,29,01,40,-27.70
2021,01,29,01,41,-27.70
2021,01,29,01,42,-27.70
2021,01,29,01,43,-27.70
2021,01,29,01,44,-27.70
2021,01,29,01,45,-27.70
2021,01,29,01,46,-27.70
2021,01,29,01,47,-27.70
2021,01,29,01,48,-27.60
2021,01,29,01,49,-27.60
2021,01,29,01,50,-27.60
2021,01,29,01,51,-27.60
2021,01,29,01,52,-27.60
2021,01,29,01,53,-27.60
2021,01,29,01,54,-27.60
2021,01,29,01,55,-27.60
2021,01,29,01,56,-27.60
2021,01,29,01,57,-27.60
2021,01,29,01,58,-27.60
2021,01,29,01,59,-27.50
2021,01,29,02,00,-27.50
2021,01,29,02,01,-27.50
2021,01,29,02,02,-27.50
2021,01,29,02,03,-27.50
2021,01,29,02,04,-27.50
2021,01,29,02,05,-27.50
2021,01,29,02,06,-27.40
2021,01,29,02,07,-27.40
2021,01,29,02,08,-27.40
2021,01,29,02,09,-27.40
2021,01,29,02,10,-27.40
2021,01,29,02,11,-27.40
2021,01,29,02,12,-27.40
2021,01,29,02,13,-27.40
2021,01,29,02,14,-27.40
2021,01,29,02,15,-27.30
2021,01,29,02,16,-27.30
2021,01,29,02,17,-27.30
2021,01,29,02,18,-27.30
2021,01,29,02,19,-27.30
2021,01,29,02,20,-27.30
2021,01,29,02,21,-27.30
2021,01,29,02,22,-27.30
2021,01,29,02,23,-27.30
2021,01,29,02,24,-27.30
2021,01,29,02,25,-27.20
2021,01,29,02,26,-27.20
2021,01,29,02,27,-27.20
2021,01,29,02,28,-27.20
2021,01,29,02,29,-27.20
2021,01,29,02,30,-27.20
2021,01,29,02,31,-27.20
2021,01,29,02,32,-27.20
2021,01,29,02,33,-27.20
2021,01,29,02,34,-27.30
2021,01,29,02,35,-27.30
2021,01,29,02,36,-27.30
2021,01,29,02,37,-27.30
2021,01,29,02,38,-27.30
2021,01,29,02,39,-27.30
2021,01,29,02,40,-27.30
2021,01,29,02,41,-27.30
2021,01,29,02,42,-27.30
2021,01,29,02,43,-27.30
2021,01,29,02,44,-27.30
2021,01,29,02,45,-27.30
2021,01,29,02,46,-27.30
2021,01,29,02,47,-27.30
2021,01,29,02,48,-27.20
2021,01,29,02,49,-27.30
2021,01,29,02,50,-27.20
2021,01,29,02,51,-27.20
2021,01,29,02,52,-27.20
2021,01,29,02,53,-27.20
2021,01,29,02,54,-27.20
2021,01,29,02,55,-27.20
2021,01,29,02,56,-27.20
2021,01,29,02,57,-27.20
2021,01,29,02,58,-27.20
2021,01,29,02,59,-27.20
2021,01,29,03,00,-27.20
2021,01,29,03,01,-27.20
2021,01,29,03,02,-27.10
2021,01,29,03,03,-27.10
2021,01,29,03,04,-27.10
2021,01,29,03,05,-27.10
2021,01,29,03,06,-27.10
2021,01,29,03,07,-27.10
2021,01,29,03,08,-27.10
2021,01,29,03,09,-27.10
2021,01,29,03,10,-27.10
2021,01,29,03,11,-27.10
2021,01,29,03,12,-27.10
2021,01,29,03,13,-27.00
2021,01,29,03,14,-27.00
2021,01,29,03,15,-27.00
2021,01,29,03,16,-27.00
2021,01,29,03,17,-27.00
2021,01,29,03,18,-27.00
2021,01,29,03,19,-27.00
2021,01,29,03,20,-27.00
2021,01,29,03,21,-27.00
2021,01,29,03,22,-26.90
2021,01,29,03,23,-26.90
2021,01,29,03,24,-26.90
2021,01,29,03,25,-26.90
2021,01,29,03,26,-26.90
2021,01,29,03,27,-26.90
2021,01,29,03,28,-26.90
2021,01,29,03,29,-26.90
2021,01,29,03,30,-26.90
2021,01,29,03,31,-26.90
2021,01,29,03,32,-26.90
2021,01,29,03,33,-26.80
2021,01,29,03,34,-26.80
2021,01,29,03,35,-26.80
2021,01,29,03,36,-26.80
2021,01,29,03,37,-26.80
2021,01,29,03,38,-26.80
2021,01,29,03,39,-26.80
2021,01,29,03,40,-26.80
2021,01,29,03,41,-26.80
2021,01,29,03,42,-26.80
2021,01,29,03,43,-26.80
2021,01,29,03,44,-26.80
2021,01,29,03,45,-26.80
2021,01,29,03,46,-26.70
2021,01,29,03,47,-26.70
2021,01,29,03,48,-26.70
2021,01,29,03,49,-26.70
2021,01,29,03,50,-26.70
2021,01,29,03,51,-26.70
2021,01,29,03,52,-26.70
2021,01,29,03,53,-26.70
2021,01,29,03,54,-26.70
2021,01,29,03,55,-26.70
2021,01,29,03,56,-26.70
2021,01,29,03,57,-26.70
2021,01,29,03,58,-26.60
2021,01,29,03,59,-26.60
2021,01,29,04,00,-26.60
2021,01,29,04,01,-26.60
2021,01,29,04,02,-26.60
2021,01,29,04,03,-26.60
2021,01,29,04,04,-26.60
2021,01,29,04,05,-26.60
2021,01,29,04,06,-26.50
2021,01,29,04,07,-26.50
2021,01,29,04,08,-26.50
2021,01,29,04,09,-26.50
2021,01,29,04,10,-26.50
2021,01,29,04,11,-26.50
2021,01,29,04,12,-26.50
2021,01,29,04,13,-26.40
2021,01,29,04,14,-26.40
2021,01,29,04,15,-26.40
2021,01,29,04,16,-26.40
2021,01,29,04,17,-26.40
2021,01,29,04,18,-26.40
2021,01,29,04,19,-26.40
2021,01,29,04,20,-26.40
2021,01,29,04,21,-26.40
2021,01,29,04,22,-26.40
2021,01,29,04,23,-26.30
2021,01,29,04,24,-26.30
2021,01,29,04,25,-26.30
2021,01,29,04,26,-26.30
2021,01,29,04,27,-26.30
2021,01,29,04,28,-26.30
2021,01,29,04,29,-26.30
2021,01,29,04,30,-26.20
2021,01,29,04,31,-26.20
2021,01,29,04,32,-26.20
2021,01,29,04,33,-26.20
2021,01,29,04,34,-26.20
2021,01,29,04,35,-26.20
2021,01,29,04,36,-26.20
2021,01,29,04,37,-26.20
2021,01,29,04,38,-26.20
2021,01,29,04,39,-26.20
2021,01,29,04,40,-26.10
2021,01,29,04,41,-26.10
2021,01,29,04,42,-26.10
2021,01,29,04,43,-26.10
2021,01,29,04,44,-26.10
2021,01,29,04,45,-26.00
2021,01,29,04,46,-26.00
2021,01,29,04,47,-26.00
2021,01,29,04,48,-26.00
2021,01,29,04,49,-25.90
2021,01,29,04,50,-25.90
2021,01,29,04,51,-25.90
2021,01,29,04,52,-25.90
2021,01,29,04,53,-25.90
2021,01,29,04,54,-25.90
2021,01,29,04,55,-25.80
2021,01,29,04,56,-25.80
2021,01,29,04,57,-25.80
2021,01,29,04,58,-25.80
2021,01,29,04,59,-25.80
2021,01,29,05,00,-25.80
2021,01,29,05,01,-25.80
2021,01,29,05,02,-25.80
2021,01,29,05,03,-25.80
2021,01,29,05,04,-25.80
2021,01,29,05,05,-25.80
2021,01,29,05,06,-25.80
2021,01,29,05,07,-25.80
2021,01,29,05,08,-25.80
2021,01,29,05,09,-25.70
2021,01,29,05,10,-25.70
2021,01,29,05,11,-25.70
2021,01,29,05,12,-25.70
2021,01,29,05,13,-25.70
2021,01,29,05,14,-25.70
2021,01,29,05,15,-25.70
2021,01,29,05,16,-25.70
2021,01,29,05,17,-25.70
2021,01,29,05,18,-25.70
2021,01,29,05,19,-25.70
2021,01,29,05,20,-25.70
2021,01,29,05,21,-25.80
2021,01,29,05,22,-25.80
2021,01,29,05,23,-25.80
2021,01,29,05,24,-25.80
2021,01,29,05,25,-25.80
2021,01,29,05,26,-25.80
2021,01,29,05,27,-25.80
2021,01,29,05,28,-25.80
2021,01,29,05,29,-25.80
2021,01,29,05,30,-25.80
2021,01,29,05,31,-25.80
2021,01,29,05,32,-25.80
2021,01,29,05,33,-25.80
2021,01,29,05,34,-25.80
2021,01,29,05,35,-25.80
2021,01,29,05,36,-25.80
2021,01,29,05,37,-25.80
2021,01,29,05,38,-25.80
2021,01,29,05,39,-25.80
2021,01,29,05,40,-25.80
2021,01,29,05,41,-25.80
2021,01,29,05,42,-25.80
2021,01,29,05,43,-25.80
2021,01,29,05,44,-25.80
2021,01,29,05,45,-25.80
2021,01,29,05,46,-25.80
2021,01,29,05,47,-25.80
2021,01,29,05,48,-25.80
2021,01,29,05,49,-25.80
2021,01,29,05,50,-25.80
2021,01,29,05,51,-25.90
2021,01,29,05,52,-25.90
2021,01,29,05,53,-25.90
2021,01,29,05,54,-25.90
2021,01,29,05,55,-25.90
2021,01,29,05,56,-25.90
2021,01,29,05,57,-25.90
2021,01,29,05,58,-25.90
2021,01,29,05,59,-25.90
2021,01,29,06,00,-25.90
2021,01,29,06,01,-25.90
2021,01,29,06,02,-25.90
2021,01,29,06,03,-25.90
2021,01,29,06,04,-25.90
2021,01,29,06,05,-25.90
2021,01,29,06,06,-25.90
2021,01,29,06,07,-25.90
2021,01,29,06,08,-25.90
2021,01,29,06,09,-25.90
2021,01,29,06,10,-25.90
2021,01,29,06,11,-25.90
2021,01,29,06,12,-25.90
2021,01,29,06,13,-25.90
2021,01,29,06,14,-25.90
2021,01,29,06,15,-25.90
2021,01,29,06,16,-26.00
2021,01,29,06,17,-25.90
2021,01,29,06,18,-25.90
2021,01,29,06,19,-25.90
2021,01,29,06,20,-25.90
2021,01,29,06,21,-25.90
2021,01,29,06,22,-25.90
2021,01,29,06,23,-25.90
2021,01,29,06,24,-25.90
2021,01,29,06,25,-25.90
2021,01,29,06,26,-25.90
2021,01,29,06,27,-25.90
2021,01,29,06,28,-25.90
2021,01,29,06,29,-25.90
2021,01,29,06,30,-25.90
2021,01,29,06,31,-25.90
2021,01,29,06,32,-25.90
2021,01,29,06,33,-25.90
2021,01,29,06,34,-25.90
2021,01,29,06,35,-25.90
2021,01,29,06,36,-25.90
2021,01,29,06,37,-25.90
2021,01,29,06,38,-25.90
2021,01,29,06,39,-25.90
2021,01,29,06,40,-25.90
2021,01,29,06,41,-25.90
2021,01,29,06,42,-26.00
2021,01,29,06,43,-26.00
2021,01,29,06,44,-26.00
2021,01,29,06,45,-26.00
2021,01,29,06,46,-26.00
2021,01,29,06,47,-26.00
2021,01,29,06,48,-26.00
2021,01,29,06,49,-26.00
2021,01,29,06,50,-26.00
2021,01,29,06,51,-26.10
2021,01,29,06,52,-26.00
2021,01,29,06,53,-26.10
2021,01,29,06,54,-26.10
2021,01,29,06,55,-26.10
2021,01,29,06,56,-26.10
2021,01,29,06,57,-26.10
2021,01,29,06,58,-26.10
2021,01,29,06,59,-26.10
2021,01,29,07,00,-26.10
2021,01,29,07,01,-26.10
2021,01,29,07,02,-26.10
2021,01,29,07,03,-26.10
2021,01,29,07,04,-26.10
2021,01,29,07,05,-26.10
2021,01,29,07,06,-26.10
2021,01,29,07,07,-26.10
2021,01,29,07,08,-26.10
2021,01,29,07,09,-26.10
2021,01,29,07,10,-26.10
2021,01,29,07,11,-26.10
2021,01,29,07,12,-26.10
2021,01,29,07,13,-26.20
2021,01,29,07,14,-26.20
2021,01,29,07,15,-26.20
2021,01,29,07,16,-26.20
2021,01,29,07,17,-26.20
2021,01,29,07,18,-26.20
2021,01,29,07,19,-26.20
2021,01,29,07,20,-26.20
2021,01,29,07,21,-26.30
2021,01,29,07,22,-26.30
2021,01,29,07,23,-26.30
2021,01,29,07,24,-26.30
2021,01,29,07,25,-26.30
2021,01,29,07,26,-26.30
2021,01,29,07,27,-26.30
2021,01,29,07,28,-26.30
2021,01,29,07,29,-26.30
2021,01,29,07,30,-26.30
2021,01,29,07,31,-26.30
2021,01,29,07,32,-26.30
2021,01,29,07,33,-26.30
2021,01,29,07,34,-26.30
2021,01,29,07,35,-26.30
2021,01,29,07,36,-26.30
2021,01,29,07,37,-26.20
2021,01,29,07,38,-26.20
2021,01,29,07,39,-26.20
2021,01,29,07,40,-26.20
2021,01,29,07,41,-26.20
2021,01,29,07,42,-26.20
2021,01,29,07,43,-26.20
2021,01,29,07,44,-26.20
2021,01,29,07,45,-26.20
2021,01,29,07,46,-26.20
2021,01,29,07,47,-26.20
2021,01,29,07,48,-26.20
2021,01,29,07,49,-26.20
2021,01,29,07,50,-26.20
2021,01,29,07,51,-26.20
2021,01,29,07,52,-26.20
2021,01,29,07,53,-26.20
2021,01,29,07,54,-26.20
2021,01,29,07,55,-26.20
2021,01,29,07,56,-26.20
2021,01,29,07,57,-26.20
2021,01,29,07,58,-26.20
2021,01,29,07,59,-26.20
2021,01,29,08,00,-26.20
2021,01,29,08,01,-26.20
2021,01,29,08,02,-26.20
2021,01,29,08,03,-26.20
2021,01,29,08,04,-26.30
2021,01,29,08,05,-26.30
2021,01,29,08,06,-26.30
2021,01,29,08,07,-26.30
2021,01,29,08,08,-26.40
2021,01,29,08,09,-26.40
2021,01,29,08,10,-26.40
2021,01,29,08,11,-26.40
2021,01,29,08,12,-26.50
2021,01,29,08,13,-26.50
2021,01,29,08,14,-26.50
2021,01,29,08,15,-26.50
2021,01,29,08,16,-26.50
2021,01,29,08,17,-26.50
2021,01,29,08,18,-26.50
2021,01,29,08,19,-26.50
2021,01,29,08,20,-26.50
2021,01,29,08,21,-26.60
2021,01,29,08,22,-26.50
2021,01,29,08,23,-26.50
2021,01,29,08,24,-26.50
2021,01,29,08,25,-26.50
2021,01,29,08,26,-26.50
2021,01,29,08,27,-26.50
2021,01,29,08,28,-26.50
2021,01,29,08,29,-26.50
2021,01,29,08,30,-26.50
2021,01,29,08,31,-26.50
2021,01,29,08,32,-26.50
2021,01,29,08,33,-26.50
2021,01,29,08,34,-26.50
2021,01,29,08,35,-26.50
2021,01,29,08,36,-26.50
2021,01,29,08,37,-26.50
2021,01,29,08,38,-26.50
2021,01,29,08,39,-26.50
2021,01,29,08,40,-26.50
2021,01,29,08,41,-26.40
2021,01,29,08,42,-26.40
2021,01,29,08,43,-26.40
2021,01,29,08,44,-26.40
2021,01,29,08,45,-26.30
2021,01,29,08,46,-26.30
2021,01,29,08,47,-26.30
2021,01,29,08,48,-26.30
2021,01,29,08,49,-26.30
2021,01,29,08,50,-26.30
2021,01,29,08,51,-26.30
2021,01,29,08,52,-26.30
2021,01,29,08,53,-26.30
2021,01,29,08,54,-26.30
2021,01,29,08,55,-26.30
2021,01,29,08,56,-26.30
2021,01,29,08,57,-26.30
2021,01,29,08,58,-26.30
2021,01,29,08,59,-26.30
2021,01,29,09,00,-26.30
2021,01,29,09,01,-26.30
2021,01,29,09,02,-26.30
2021,01,29,09,03,-26.30
2021,01,29,09,04,-26.30
2021,01,29,09,05,-26.30
2021,01,29,09,06,-26.30
2021,01,29,09,07,-26.30
2021,01,29,09,08,-26.30
2021,01,29,09,09,-26.30
2021,01,29,09,10,-26.30
2021,01,29,09,11,-26.30
2021,01,29,09,12,-26.30
2021,01,29,09,13,-26.30
2021,01,29,09,14,-26.30
2021,01,29,09,15,-26.30
2021,01,29,09,16,-26.30
2021,01,29,09,17,-26.30
2021,01,29,09,18,-26.30
2021,01,29,09,19,-26.30
2021,01,29,09,20,-26.30
2021,01,29,09,21,-26.30
2021,01,29,09,22,-26.30
2021,01,29,09,23,-26.30
2021,01,29,09,24,-26.30
2021,01,29,09,25,-26.30
2021,01,29,09,26,-26.30
2021,01,29,09,27,-26.30
2021,01,29,09,28,-26.30
2021,01,29,09,29,-26.30
2021,01,29,09,30,-26.30
2021,01,29,09,31,-26.30
2021,01,29,09,32,-26.30
2021,01,29,09,33,-26.30
2021,01,29,09,34,-26.30
2021,01,29,09,35,-26.30
2021,01,29,09,36,-26.30
2021,01,29,09,37,-26.30
2021,01,29,09,38,-26.30
2021,01,29,09,39,-26.30
2021,01,29,09,40,-26.30
2021,01,29,09,41,-26.30
2021,01,29,09,42,-26.30
2021,01,29,09,43,-26.30
2021,01,29,09,44,-26.30
2021,01,29,09,45,-26.30
2021,01,29,09,46,-26.30
2021,01,29,09,47,-26.30
2021,01,29,09,48,-26.30
2021,01,29,09,49,-26.30
2021,01,29,09,50,-26.30
2021,01,29,09,51,-26.30
2021,01,29,09,52,-26.30
2021,01,29,09,53,-26.30
2021,01,29,09,54,-26.40
2021,01,29,09,55,-26.40
2021,01,29,09,56,-26.40
2021,01,29,09,57,-26.40
2021,01,29,09,58,-26.40
2021,01,29,09,59,-26.40
2021,01,29,10,00,-26.40
2021,01,29,10,01,-26.40
2021,01,29,10,02,-26.40
2021,01,29,10,03,-26.40
2021,01,29,10,04,-26.40
2021,01,29,10,05,-26.40
2021,01,29,10,06,-26.40
2021,01,29,10,07,-26.40
2021,01,29,10,08,-26.40
2021,01,29,10,09,-26.50
2021,01,29,10,10,-26.50
2021,01,29,10,11,-26.50
2021,01,29,10,12,-26.50
2021,01,29,10,13,-26.50
2021,01,29,10,14,-26.50
2021,01,29,10,15,-26.50
2021,01,29,10,16,-26.50
2021,01,29,10,17,-26.50
2021,01,29,10,18,-26.50
2021,01,29,10,19,-26.60
2021,01,29,10,20,-26.60
2021,01,29,10,21,-26.60
2021,01,29,10,22,-26.60
2021,01,29,10,23,-26.60
2021,01,29,10,24,-26.60
2021,01,29,10,25,-26.60
2021,01,29,10,26,-26.60
2021,01,29,10,27,-26.60
2021,01,29,10,28,-26.60
2021,01,29,10,29,-26.60
2021,01,29,10,30,-26.60
2021,01,29,10,31,-26.60
2021,01,29,10,32,-26.60
2021,01,29,10,33,-26.60
2021,01,29,10,34,-26.60
2021,01,29,10,35,-26.60
2021,01,29,10,36,-26.60
2021,01,29,10,37,-26.60
2021,01,29,10,38,-26.60
2021,01,29,10,39,-26.60
2021,01,29,10,40,-26.60
2021,01,29,10,41,-26.60
2021,01,29,10,42,-26.60
2021,01,29,10,43,-26.60
2021,01,29,10,44,-26.70
2021,01,29,10,45,-26.70
2021,01,29,10,46,-26.70
2021,01,29,10,47,-26.70
2021,01,29,10,48,-26.70
2021,01,29,10,49,-26.60
2021,01,29,10,50,-26.60
2021,01,29,10,51,-26.60
2021,01,29,10,52,-26.60
2021,01,29,10,53,-26.60
2021,01,29,10,54,-26.60
2021,01,29,10,55,-26.60
2021,01,29,10,56,-26.60
2021,01,29,10,57,-26.60
2021,01,29,10,58,-26.60
2021,01,29,10,59,-26.60
2021,01,29,11,00,-26.60
2021,01,29,11,01,-26.60
2021,01,29,11,02,-26.60
2021,01,29,11,03,-26.60
2021,01,29,11,04,-26.60
2021,01,29,11,05,-26.70
2021,01,29,11,06,-26.70
2021,01,29,11,07,-26.70
2021,01,29,11,08,-26.70
2021,01,29,11,09,-26.70
2021,01,29,11,10,-26.70
2021,01,29,11,11,-26.70
2021,01,29,11,12,-26.70
2021,01,29,11,13,-26.80
2021,01,29,11,14,-26.80
2021,01,29,11,15,-26.80
2021,01,29,11,16,-26.80
2021,01,29,11,17,-26.80
2021,01,29,11,18,-26.80
2021,01,29,11,19,-26.80
2021,01,29,11,20,-26.80
2021,01,29,11,21,-26.80
2021,01,29,11,22,-26.80
2021,01,29,11,23,-26.80
2021,01,29,11,24,-26.80
2021,01,29,11,25,-26.80
2021,01,29,11,26,-26.80
2021,01,29,11,27,-26.80
2021,01,29,11,28,-26.80
2021,01,29,11,29,-26.80
2021,01,29,11,30,-26.80
2021,01,29,11,31,-26.80
2021,01,29,11,32,-26.80
2021,01,29,11,33,-26.80
2021,01,29,11,34,-26.80
2021,01,29,11,35,-26.80
2021,01,29,11,36,-26.80
2021,01,29,11,37,-26.80
2021,01,29,11,38,-26.80
2021,01,29,11,39,-26.80
2021,01,29,11,40,-26.80
2021,01,29,11,41,-26.80
2021,01,29,11,42,-26.80
2021,01,29,11,43,-26.80
2021,01,29,11,44,-26.80
2021,01,29,11,45,-26.80
2021,01,29,11,46,-26.80
2021,01,29,11,47,-26.80
2021,01,29,11,48,-26.80
2021,01,29,11,49,-26.80
2021,01,29,11,50,-26.80
2021,01,29,11,51,-26.80
2021,01,29,11,52,-26.80
2021,01,29,11,53,-26.80
2021,01,29,11,54,-26.80
2021,01,29,11,55,-26.80
2021,01,29,11,56,-26.80
2021,01,29,11,57,-26.80
2021,01,29,11,58,-26.80
2021,01,29,11,59,-26.80
2021,01,29,12,00,-26.80
2021,01,29,12,01,-26.80
2021,01,29,12,02,-26.90
2021,01,29,12,03,-26.90
2021,01,29,12,04,-26.90
2021,01,29,12,05,-26.90
2021,01,29,12,06,-26.90
2021,01,29,12,07,-26.90
2021,01,29,12,08,-26.90
2021,01,29,12,09,-26.90
2021,01,29,12,10,-26.80
2021,01,29,12,11,-26.80
2021,01,29,12,12,-26.80
2021,01,29,12,13,-26.80
2021,01,29,12,14,-26.80
2021,01,29,12,15,-26.80
2021,01,29,12,16,-26.80
2021,01,29,12,17,-26.80
2021,01,29,12,18,-26.80
2021,01,29,12,19,-26.80
2021,01,29,12,20,-26.80
2021,01,29,12,21,-26.80
2021,01,29,12,22,-26.80
2021,01,29,12,23,-26.80
2021,01,29,12,24,-26.80
2021,01,29,12,25,-26.80
2021,01,29,12,26,-26.80
2021,01,29,12,27,-26.80
2021,01,29,12,28,-26.80
2021,01,29,12,29,-26.80
2021,01,29,12,30,-26.80
2021,01,29,12,31,-26.90
2021,01,29,12,32,-26.90
2021,01,29,12,33,-26.90
2021,01,29,12,34,-26.90
2021,01,29,12,35,-26.90
2021,01,29,12,36,-26.90
2021,01,29,12,37,-26.80
2021,01,29,12,38,-26.80
2021,01,29,12,39,-26.80
2021,01,29,12,40,-26.80
2021,01,29,12,41,-26.80
2021,01,29,12,42,-26.80
2021,01,29,12,43,-26.80
2021,01,29,12,44,-26.80
2021,01,29,12,45,-26.80
2021,01,29,12,46,-26.80
2021,01,29,12,47,-26.80
2021,01,29,12,48,-26.80
2021,01,29,12,49,-26.80
2021,01,29,12,50,-26.80
2021,01,29,12,51,-26.80
2021,01,29,12,52,-26.80
2021,01,29,12,53,-26.80
2021,01,29,12,54,-26.80
2021,01,29,12,55,-26.80
2021,01,29,12,56,-26.80
2021,01,29,12,57,-26.80
2021,01,29,12,58,-26.80
2021,01,29,12,59,-26.80
2021,01,29,13,00,-26.80
2021,01,29,13,01,-26.80
2021,01,29,13,02,-26.80
2021,01,29,13,03,-26.80
2021,01,29,13,04,-26.80
2021,01,29,13,05,-26.80
2021,01,29,13,06,-26.80
2021,01,29,13,07,-26.80
2021,01,29,13,08,-26.80
2021,01,29,13,09,-26.80
2021,01,29,13,10,-26.80
2021,01,29,13,11,-26.70
2021,01,29,13,12,-26.70
2021,01,29,13,13,-26.70
2021,01,29,13,14,-26.70
2021,01,29,13,15,-26.70
2021,01,29,13,16,-26.70
2021,01,29,13,17,-26.70
2021,01,29,13,18,-26.70
2021,01,29,13,19,-26.70
2021,01,29,13,20,-26.70
2021,01,29,13,21,-26.70
2021,01,29,13,22,-26.70
2021,01,29,13,23,-26.70
2021,01,29,13,24,-26.70
2021,01,29,13,25,-26.70
2021,01,29,13,26,-26.70
2021,01,29,13,27,-26.70
2021,01,29,13,28,-26.70
2021,01,29,13,29,-26.70
2021,01,29,13,30,-26.70
2021,01,29,13,31,-26.70
2021,01,29,13,32,-26.70
2021,01,29,13,33,-26.70
2021,01,29,13,34,-26.70
2021,01,29,13,35,-26.70
2021,01,29,13,36,-26.70
2021,01,29,13,37,-26.70
2021,01,29,13,38,-26.70
2021,01,29,13,39,-26.70
2021,01,29,13,40,-26.80
2021,01,29,13,41,-26.80
2021,01,29,13,42,-26.80
2021,01,29,13,43,-26.70
2021,01,29,13,44,-26.70
2021,01,29,13,45,-26.70
2021,01,29,13,46,-26.70
2021,01,29,13,47,-26.70
2021,01,29,13,48,-26.70
2021,01,29,13,49,-26.70
2021,01,29,13,50,-26.70
2021,01,29,13,51,-26.80
2021,01,29,13,52,-26.80
2021,01,29,13,53,-26.80
2021,01,29,13,54,-26.80
2021,01,29,13,55,-26.80
2021,01,29,13,56,-26.80
2021,01,29,13,57,-26.80
2021,01,29,13,58,-26.80
2021,01,29,13,59,-26.80
2021,01,29,14,00,-26.80
2021,01,29,14,01,-26.80
2021,01,29,14,02,-26.80
2021,01,29,14,03,-26.80
2021,01,29,14,04,-26.80
2021,01,29,14,05,-26.80
2021,01,29,14,06,-26.80
2021,01,29,14,07,-26.80
2021,01,29,14,08,-26.80
2021,01,29,14,09,-26.80
2021,01,29,14,10,-26.80
2021,01,29,14,11,-26.80
2021,01,29,14,12,-26.80
2021,01,29,14,13,-26.80
2021,01,29,14,14,-26.80
2021,01,29,14,15,-26.80
2021,01,29,14,16,-26.80
2021,01,29,14,17,-26.80
2021,01,29,14,18,-26.80
2021,01,29,14,19,-26.80
2021,01,29,14,20,-26.80
2021,01,29,14,21,-26.80
2021,01,29,14,22,-26.80
2021,01,29,14,23,-26.80
2021,01,29,14,24,-26.80
2021,01,29,14,25,-26.80
2021,01,29,14,26,-26.80
2021,01,29,14,27,-26.70
2021,01,29,14,28,-26.70
2021,01,29,14,29,-26.70
2021,01,29,14,30,-26.70
2021,01,29,14,31,-26.70
2021,01,29,14,32,-26.70
2021,01,29,14,33,-26.70
2021,01,29,14,34,-26.70
2021,01,29,14,35,-26.70
2021,01,29,14,36,-26.70
2021,01,29,14,37,-26.70
2021,01,29,14,38,-26.70
2021,01,29,14,39,-26.70
2021,01,29,14,40,-26.70
2021,01,29,14,41,-26.70
2021,01,29,14,42,-26.70
2021,01,29,14,43,-26.70
2021,01,29,14,44,-26.70
2021,01,29,14,45,-26.70
2021,01,29,14,46,-26.70
2021,01,29,14,47,-26.70
2021,01,29,14,48,-26.70
2021,01,29,14,49,-26.70
2021,01,29,14,50,-26.70
2021,01,29,14,51,-26.70
2021,01,29,14,52,-26.70
2021,01,29,14,53,-26.70
2021,01,29,14,54,-26.70
2021,01,29,14,55,-26.70
2021,01,29,14,56,-26.70
2021,01,29,14,57,-26.70
2021,01,29,14,58,-26.70
2021,01,29,14,59,-26.70
2021,01,29,15,00,-26.60
2021,01,29,15,01,-26.60
2021,01,29,15,02,-26.60
2021,01,29,15,03,-26.60
2021,01,29,15,04,-26.60
2021,01,29,15,05,-26.60
2021,01,29,15,06,-26.60
2021,01,29,15,07,-26.60
2021,01,29,15,08,-26.60
2021,01,29,15,09,-26.60
2021,01,29,15,10,-26.60
2021,01,29,15,11,-26.60
2021,01,29,15,12,-26.60
2021,01,29,15,13,-26.60
2021,01,29,15,14,-26.60
2021,01,29,15,15,-26.60
2021,01,29,15,16,-26.60
2021,01,29,15,17,-26.60
2021,01,29,15,18,-26.60
2021,01,29,15,19,-26.60
2021,01,29,15,20,-26.60
2021,01,29,15,21,-26.60
2021,01,29,15,22,-26.60
2021,01,29,15,23,-26.60
2021,01,29,15,24,-26.60
2021,01,29,15,25,-26.60
2021,01,29,15,26,-26.60
2021,01,29,15,27,-26.60
2021,01,29,15,28,-26.60
2021,01,29,15,29,-26.60
2021,01,29,15,30,-26.60
2021,01,29,15,31,-26.60
2021,01,29,15,32,-26.60
2021,01,29,15,33,-26.50
2021,01,29,15,34,-26.50
2021,01,29,15,35,-26.60
2021,01,29,15,36,-26.50
2021,01,29,15,37,-26.50
2021,01,29,15,38,-26.50
2021,01,29,15,39,-26.50
2021,01,29,15,40,-26.50
2021,01,29,15,41,-26.50
2021,01,29,15,42,-26.50
2021,01,29,15,43,-26.50
2021,01,29,15,44,-26.50
2021,01,29,15,45,-26.50
2021,01,29,15,46,-26.50
2021,01,29,15,47,-26.50
2021,01,29,15,48,-26.50
2021,01,29,15,49,-26.50
2021,01,29,15,50,-26.60
2021,01,29,15,51,-26.60
2021,01,29,15,52,-26.50
2021,01,29,15,53,-26.50
2021,01,29,15,54,-26.50
2021,01,29,15,55,-26.50
2021,01,29,15,56,-26.50
2021,01,29,15,57,-26.50
2021,01,29,15,58,-26.50
2021,01,29,15,59,-26.50
2021,01,29,16,00,-26.50
2021,01,29,16,01,-26.50
2021,01,29,16,02,-26.50
2021,01,29,16,03,-26.50
2021,01,29,16,04,-26.50
2021,01,29,16,05,-26.50
2021,01,29,16,06,-26.50
2021,01,29,16,07,-26.40
2021,01,29,16,08,-26.40
2021,01,29,16,09,-26.40
2021,01,29,16,10,-26.40
2021,01,29,16,11,-26.40
2021,01,29,16,12,-26.40
2021,01,29,16,13,-26.40
2021,01,29,16,14,-26.40
2021,01,29,16,15,-26.40
2021,01,29,16,16,-26.40
2021,01,29,16,17,-26.40
2021,01,29,16,18,-26.40
2021,01,29,16,19,-26.40
2021,01,29,16,20,-26.40
2021,01,29,16,21,-26.40
2021,01,29,16,22,-26.40
2021,01,29,16,23,-26.40
2021,01,29,16,24,-26.40
2021,01,29,16,25,-26.40
2021,01,29,16,26,-26.40
2021,01,29,16,27,-26.40
2021,01,29,16,28,-26.40
2021,01,29,16,29,-26.40
2021,01,29,16,30,-26.40
2021,01,29,16,31,-26.40
2021,01,29,16,32,-26.40
2021,01,29,16,33,-26.40
2021,01,29,16,34,-26.40
2021,01,29,16,35,-26.40
2021,01,29,16,36,-26.40